2023/01/28 00:00:00,47.5,-1.2
2023/01/28 00:10:00,48.1,-1.2
2023/01/28 00:20:00,48.6,-1.1
2023/01/28 00:30:00,48.8,-1.0
2023/01/28 00:40:00,49.0,-1.1
2023/01/28 00:50:00,50.6,-1.4
2023/01/28 01:00:00,51.6,-1.1
2023/01/28 01:10:00,52.7,-1.2
2023/01/28 01:20:00,53.9,-1.4
2023/01/28 01:30:00,54.5,-1.2
2023/01/28 01:40:00,54.6,-1.4
2023/01/28 01:50:00,54.4,-1.2
2023/01/28 02:00:00,54.5,-1.7
2023/01/28 02:10:00,55.3,-1.4
2023/01/28 02:20:00,56.5,-2.0
2023/01/28 02:30:00,57.8,-1.4
2023/01/28 02:40:00,58.3,-1.6
2023/01/28 02:50:00,58.5,-1.1
2023/01/28 03:00:00,58.5,-2.0
2023/01/28 03:10:00,58.7,-1.6
2023/01/28 03:20:00,59.1,-1.5
2023/01/28 03:30:00,60.2,-1.6
2023/01/28 03:40:00,60.1,-1.3
2023/01/28 03:50:00,60.1,-2.1
2023/01/28 04:00:00,61.1,-1.9
2023/01/28 04:10:00,62.3,-1.8
2023/01/28 04:20:00,63.6,-1.9
2023/01/28 04:30:00,64.3,-1.8
2023/01/28 04:40:00,64.8,-1.7
2023/01/28 04:50:00,65.6,-1.4
2023/01/28 05:00:00,65.8,-1.7
2023/01/28 05:10:00,65.4,-2.2
2023/01/28 05:20:00,65.1,-1.9
2023/01/28 05:30:00,65.0,-2.2
2023/01/28 05:40:00,65.3,-1.8
2023/01/28 05:50:00,66.3,-2.1
2023/01/28 06:00:00,66.9,-2.0
2023/01/28 06:10:00,67.0,-2.0
2023/01/28 06:20:00,67.0,-2.1
2023/01/28 06:30:00,66.9,-2.0
2023/01/28 06:40:00,67.0,-2.1
2023/01/28 06:50:00,67.1,-2.0
2023/01/28 07:00:00,67.6,-2.1
2023/01/28 07:10:00,68.9,-2.0
2023/01/28 07:20:00,69.6,-1.7
2023/01/28 07:30:00,69.5,-1.8
2023/01/28 07:40:00,69.4,-1.6
2023/01/28 07:50:00,69.7,-1.8
2023/01/28 08:00:00,70.4,-1.2
2023/01/28 08:10:00,70.7,-1.2
2023/01/28 08:20:00,71.9,-1.5
2023/01/28 08:30:00,73.2,-0.9
2023/01/28 08:40:00,73.6, 0.5
2023/01/28 08:50:00,73.4, 0.0
2023/01/28 09:00:00,73.5,-0.9
2023/01/28 09:10:00,74.6,-0.8
2023/01/28 09:20:00,75.1,-0.4
2023/01/28 09:30:00,75.3, 0.6
2023/01/28 09:40:00,74.9, 0.8
2023/01/28 09:50:00,74.8, 0.1
2023/01/28 10:00:00,74.7, 0.7
2023/01/28 10:10:00,74.5, 1.0
2023/01/28 10:20:00,74.2, 1.1
2023/01/28 10:30:00,74.2, 3.4
2023/01/28 10:40:00,74.1, 9.6
2023/01/28 10:50:00,73.1, 5.3
2023/01/28 11:00:00,72.3, 2.9
2023/01/28 11:10:00,72.2, 5.4
2023/01/28 11:20:00,71.8, 9.6
2023/01/28 11:30:00,70.9, 7.0
2023/01/28 11:40:00,69.8, 2.6
2023/01/28 11:50:00,69.3, 3.0
2023/01/28 12:00:00,69.1, 3.0
2023/01/28 12:10:00,69.0, 3.3
2023/01/28 12:20:00,69.1, 5.1
2023/01/28 12:30:00,68.6, 4.8
2023/01/28 12:40:00,68.0, 4.4
2023/01/28 12:50:00,67.3, 4.1
2023/01/28 13:00:00,67.0, 3.9
2023/01/28 13:10:00,66.7, 3.5
2023/01/28 13:20:00,66.5, 3.1
2023/01/28 13:30:00,66.5, 2.6
2023/01/28 13:40:00,66.1, 2.7
2023/01/28 13:50:00,65.7, 3.2
2023/01/28 14:00:00,65.5, 2.9
2023/01/28 14:10:00,65.1, 1.8
2023/01/28 14:20:00,65.1, 1.9
2023/01/28 14:30:00,64.9, 1.8
2023/01/28 14:40:00,64.8, 2.2
2023/01/28 14:50:00,64.5, 2.2
2023/01/28 15:00:00,63.9, 1.1
2023/01/28 15:10:00,64.1, 0.4
2023/01/28 15:20:00,64.4,-0.5
2023/01/28 15:30:00,64.2,-0.5
2023/01/28 15:40:00,64.3,-0.7
2023/01/28 15:50:00,64.4, 0.2
2023/01/28 16:00:00,64.2, 0.9
2023/01/28 16:10:00,64.0, 0.5
2023/01/28 16:20:00,63.7, 0.0
2023/01/28 16:30:00,63.6,-0.2
2023/01/28 16:40:00,63.4,-0.4
2023/01/28 16:50:00,63.0,-0.8
2023/01/28 17:00:00,62.8,-1.0
2023/01/28 17:10:00,62.8,-1.2
2023/01/28 17:20:00,62.8,-1.4
2023/01/28 17:30:00,62.5,-1.6
2023/01/28 17:40:00,62.0,-1.5
2023/01/28 17:50:00,61.8,-1.4
2023/01/28 18:00:00,61.9,-1.2
2023/01/28 18:10:00,62.0,-2.0
2023/01/28 18:20:00,61.9,-1.7
2023/01/28 18:30:00,61.7,-2.1
2023/01/28 18:40:00,61.5,-2.1
2023/01/28 18:50:00,61.5,-2.1
2023/01/28 19:00:00,61.3,-2.0
2023/01/28 19:10:00,61.2,-2.5
2023/01/28 19:20:00,60.9,-2.5
2023/01/28 19:30:00,60.7,-3.1
2023/01/28 19:40:00,60.7,-3.1
2023/01/28 19:50:00,60.6,-3.2
2023/01/28 20:00:00,60.6,-2.7
2023/01/28 20:10:00,60.6,-3.6
2023/01/28 20:20:00,60.5,-2.9
2023/01/28 20:30:00,60.8,-2.9
2023/01/28 20:40:00,61.0,-3.3
2023/01/28 20:50:00,60.8,-3.3
2023/01/28 21:00:00,61.9,-3.5
2023/01/28 21:10:00,62.2,-3.1
2023/01/28 21:20:00,62.5,-3.0
2023/01/28 21:30:00,62.7,-3.3
2023/01/28 21:40:00,62.6,-3.1
2023/01/28 21:50:00,63.0,-3.1
2023/01/28 22:00:00,63.0,-2.9
2023/01/28 22:10:00,63.4,-3.1
2023/01/28 22:20:00,63.4,-3.2
2023/01/28 22:30:00,63.2,-3.6
2023/01/28 22:40:00,62.9,-3.9
2023/01/28 22:50:00,62.9,-3.7
2023/01/28 23:00:00,62.8,-3.5
2023/01/28 23:10:00,62.9,-3.6
2023/01/28 23:20:00,63.3,-3.1
2023/01/28 23:30:00,63.2,-3.2
2023/01/28 23:40:00,63.3,-3.1
2023/01/28 23:50:00,63.2,-3.4
